TimeEDT,TemperatureF,Dew PointF,Humidity,Sea Level PressureIn,VisibilityMPH,Wind Direction,Wind SpeedMPH,Gust SpeedMPH,PrecipitationIn,Events,Conditions,WindDirDegrees,DateUTC
12:53 AM,78.1,72.0,81,30.20,10.0,ENE,3.5,-,N/A,,Clear,60,2013-07-16 04:53:00
1:53 AM,77.0,72.0,84,30.20,10.0,ENE,4.6,-,N/A,,Clear,70,2013-07-16 05:53:00
2:53 AM,77.0,72.0,84,30.20,10.0,East,4.6,-,N/A,,Clear,80,2013-07-16 06:53:00
3:53 AM,77.0,72.0,84,30.20,10.0,NE,3.5,-,N/A,,Clear,50,2013-07-16 07:53:00
4:18 AM,75.2,71.6,89,30.18,10.0,ENE,3.5,-,N/A,,Partly Cloudy,60,2013-07-16 08:18:00
4:35 AM,77.0,71.6,83,30.18,10.0,NE,3.5,-,N/A,,Mostly Cloudy,50,2013-07-16 08:35:00
4:53 AM,75.9,72.0,87,30.19,9.0,NE,3.5,-,N/A,,Overcast,50,2013-07-16 08:53:00
5:38 AM,75.2,71.6,89,30.17,8.0,ENE,6.9,-,N/A,,Overcast,70,2013-07-16 09:38:00
5:53 AM,77.0,72.0,84,30.20,8.0,ENE,5.8,-,N/A,,Overcast,60,2013-07-16 09:53:00
6:53 AM,77.0,73.0,88,30.21,8.0,East,5.8,-,N/A,,Overcast,80,2013-07-16 10:53:00
7:53 AM,78.1,73.0,84,30.22,9.0,ENE,5.8,-,N/A,,Mostly Cloudy,70,2013-07-16 11:53:00
8:53 AM,81.0,73.9,79,30.25,10.0,East,4.6,-,N/A,,Mostly Cloudy,90,2013-07-16 12:53:00
9:34 AM,82.4,73.4,74,30.23,10.0,East,8.1,-,N/A,,Mostly Cloudy,100,2013-07-16 13:34:00
9:53 AM,82.9,73.0,72,30.25,10.0,ESE,6.9,-,N/A,,Mostly Cloudy,110,2013-07-16 13:53:00
10:53 AM,86.0,72.0,63,30.25,10.0,East,10.4,-,N/A,,Mostly Cloudy,90,2013-07-16 14:53:00
11:00 AM,87.8,71.6,58,30.23,10.0,East,10.4,-,N/A,,Mostly Cloudy,90,2013-07-16 15:00:00
11:07 AM,87.8,73.4,62,30.23,10.0,Variable,6.9,-,N/A,,Mostly Cloudy,0,2013-07-16 15:07:00
11:41 AM,84.2,71.6,66,30.24,1.8,East,12.7,-,0.12,Rain,Heavy Rain,100,2013-07-16 15:41:00
11:47 AM,80.6,71.6,74,30.24,2.0,NE,4.6,18.4,0.24,Rain,Heavy Rain,50,2013-07-16 15:47:00
11:53 AM,82.0,73.9,76,30.25,5.0,ENE,5.8,-,0.24,Rain,Light Rain,60,2013-07-16 15:53:00
12:53 PM,90.0,73.9,59,30.24,10.0,Variable,6.9,-,0.00,,Overcast,0,2013-07-16 16:53:00
12:59 PM,89.6,73.4,59,30.22,10.0,ENE,6.9,-,N/A,Thunderstorm,Thunderstorm,60,2013-07-16 16:59:00
1:26 PM,78.8,73.4,83,30.24,2.0,East,6.9,-,0.06,Rain-Thunderstorm,Thunderstorms and Rain,90,2013-07-16 17:26:00
1:38 PM,78.8,73.4,83,30.23,4.0,ENE,6.9,-,0.07,Rain-Thunderstorm,Light Thunderstorms and Rain,60,2013-07-16 17:38:00
1:53 PM,79.0,73.0,82,30.24,10.0,NE,5.8,-,0.07,,Mostly Cloudy,40,2013-07-16 17:53:00
2:53 PM,88.0,73.9,63,30.22,10.0,Calm,Calm,-,0.00,,Mostly Cloudy,0,2013-07-16 18:53:00
3:53 PM,91.9,73.0,54,30.19,10.0,East,8.1,-,N/A,Thunderstorm,Thunderstorm,80,2013-07-16 19:53:00
4:36 PM,93.2,71.6,49,30.17,10.0,SE,4.6,-,N/A,,Scattered Clouds,130,2013-07-16 20:36:00
4:53 PM,93.0,70.0,47,30.19,10.0,East,10.4,-,N/A,,Scattered Clouds,80,2013-07-16 20:53:00
5:53 PM,91.9,68.0,45,30.19,10.0,East,9.2,17.3,N/A,,Scattered Clouds,100,2013-07-16 21:53:00
6:53 PM,87.1,73.9,65,30.18,10.0,SSW,3.5,-,N/A,,Scattered Clouds,210,2013-07-16 22:53:00
7:53 PM,84.0,73.0,69,30.22,10.0,Calm,Calm,-,N/A,,Scattered Clouds,0,2013-07-16 23:53:00
8:53 PM,80.1,73.9,81,30.22,10.0,Calm,Calm,-,N/A,,Clear,0,2013-07-17 00:53:00
9:53 PM,80.1,73.0,79,30.23,10.0,Calm,Calm,-,N/A,,Scattered Clouds,0,2013-07-17 01:53:00
10:53 PM,79.0,72.0,79,30.25,10.0,Calm,Calm,-,N/A,,Clear,0,2013-07-17 02:53:00
11:53 PM,78.1,72.0,81,30.25,10.0,Calm,Calm,-,N/A,,Clear,0,2013-07-17 03:53:00